TimeEDT,TemperatureF,Dew PointF,Humidity,Sea Level PressureIn,VisibilityMPH,Wind Direction,Wind SpeedMPH,Gust SpeedMPH,PrecipitationIn,Events,Conditions,WindDirDegrees,DateUTC
12:22 AM,53.6,53.6,100,30.09,7.0,Calm,Calm,-,N/A,,Clear,0,2012-10-10 04:22:00
12:41 AM,53.6,53.6,100,30.09,3.0,SE,3.5,-,N/A,,Clear,140,2012-10-10 04:41:00
12:42 AM,53.6,53.6,100,30.09,2.5,SE,3.5,-,N/A,,Clear,140,2012-10-10 04:42:00
12:47 AM,53.6,53.6,100,30.09,2.0,Calm,Calm,-,N/A,,Clear,0,2012-10-10 04:47:00
12:49 AM,53.6,53.6,100,30.09,2.5,Calm,Calm,-,N/A,,Clear,0,2012-10-10 04:49:00
12:53 AM,53.6,53.6,100,30.09,3.0,Calm,Calm,-,N/A,,Clear,0,2012-10-10 04:53:00
12:55 AM,54.5,54.1,99,30.09,3.0,Calm,Calm,-,N/A,,Clear,0,2012-10-10 04:55:00
1:02 AM,55.4,53.6,94,30.09,2.5,Calm,Calm,-,N/A,,Clear,0,2012-10-10 05:02:00
1:05 AM,53.6,53.6,100,30.09,1.8,Calm,Calm,-,N/A,,Clear,0,2012-10-10 05:05:00
1:07 AM,53.6,53.6,100,30.09,1.5,Calm,Calm,-,N/A,,Clear,0,2012-10-10 05:07:00
1:09 AM,53.6,53.6,100,30.09,1.2,Calm,Calm,-,N/A,,Clear,0,2012-10-10 05:09:00
1:11 AM,53.6,53.6,100,30.09,1.0,Calm,Calm,-,N/A,,Clear,0,2012-10-10 05:11:00
1:15 AM,53.6,53.6,100,30.09,0.8,Calm,Calm,-,N/A,,Clear,0,2012-10-10 05:15:00
1:17 AM,53.6,53.6,100,30.09,0.8,Calm,Calm,-,N/A,,Clear,0,2012-10-10 05:17:00
1:24 AM,53.6,53.6,100,30.09,0.8,Calm,Calm,-,N/A,,Clear,0,2012-10-10 05:24:00
1:26 AM,53.6,53.6,100,30.09,1.0,Calm,Calm,-,N/A,,Clear,0,2012-10-10 05:26:00
1:27 AM,53.6,53.6,100,30.09,1.0,Calm,Calm,-,N/A,,Clear,0,2012-10-10 05:27:00
1:28 AM,53.6,53.6,100,30.09,1.2,Calm,Calm,-,N/A,,Clear,0,2012-10-10 05:28:00
1:29 AM,53.6,53.6,100,30.09,1.5,Calm,Calm,-,N/A,,Clear,0,2012-10-10 05:29:00
1:30 AM,53.6,53.6,100,30.09,1.8,Calm,Calm,-,N/A,,Clear,0,2012-10-10 05:30:00
1:31 AM,53.6,53.6,100,30.09,2.0,Calm,Calm,-,N/A,,Clear,0,2012-10-10 05:31:00
1:33 AM,53.6,53.6,100,30.09,1.8,Calm,Calm,-,N/A,,Clear,0,2012-10-10 05:33:00
1:34 AM,53.6,53.6,100,30.09,1.2,Calm,Calm,-,N/A,,Clear,0,2012-10-10 05:34:00
1:35 AM,53.6,53.6,100,30.09,1.0,Calm,Calm,-,N/A,,Clear,0,2012-10-10 05:35:00
1:36 AM,53.6,53.6,100,30.09,0.8,Calm,Calm,-,N/A,,Clear,0,2012-10-10 05:36:00
1:38 AM,53.6,53.6,100,30.09,0.5,Calm,Calm,-,N/A,Fog,Fog,0,2012-10-10 05:38:00
1:40 AM,53.6,53.6,100,30.09,0.5,Calm,Calm,-,N/A,Fog,Fog,0,2012-10-10 05:40:00
1:41 AM,53.6,53.6,100,30.09,0.5,Calm,Calm,-,N/A,Fog,Fog,0,2012-10-10 05:41:00
1:42 AM,53.6,53.6,100,30.09,0.5,Calm,Calm,-,N/A,Fog,Fog,0,2012-10-10 05:42:00
1:48 AM,53.6,53.6,100,30.09,0.5,Calm,Calm,-,N/A,Fog,Fog,0,2012-10-10 05:48:00
1:55 AM,52.5,52.3,99,30.09,0.5,Calm,Calm,-,N/A,Fog,Fog,0,2012-10-10 05:55:00
1:59 AM,51.8,51.8,100,30.09,0.5,Calm,Calm,-,N/A,Fog,Fog,0,2012-10-10 05:59:00
2:00 AM,51.8,51.8,100,30.08,0.5,Calm,Calm,-,N/A,Fog,Fog,0,2012-10-10 06:00:00
2:05 AM,51.8,51.8,100,30.09,0.8,Calm,Calm,-,N/A,,Mist,0,2012-10-10 06:05:00
2:08 AM,51.8,51.8,100,30.08,0.8,Calm,Calm,-,N/A,,Mist,0,2012-10-10 06:08:00
2:10 AM,53.6,51.8,94,30.09,0.5,Calm,Calm,-,N/A,Fog,Fog,0,2012-10-10 06:10:00
2:17 AM,51.8,51.8,100,30.09,0.2,Calm,Calm,-,N/A,Fog,Fog,0,2012-10-10 06:17:00
2:25 AM,51.8,51.8,100,30.10,0.2,Calm,Calm,-,N/A,Fog,Fog,0,2012-10-10 06:25:00
2:27 AM,51.8,51.8,100,30.10,0.2,Calm,Calm,-,N/A,Fog,Fog,0,2012-10-10 06:27:00
2:48 AM,51.8,51.8,100,30.10,0.5,Calm,Calm,-,N/A,Fog,Fog,0,2012-10-10 06:48:00
2:55 AM,52.7,52.5,99,30.10,0.5,Calm,Calm,-,N/A,Fog,Fog,0,2012-10-10 06:55:00
3:09 AM,53.6,53.6,100,30.09,0.2,Calm,Calm,-,N/A,Fog,Fog,0,2012-10-10 07:09:00
3:15 AM,53.6,53.6,100,30.09,0.2,Calm,Calm,-,N/A,Fog,Fog,0,2012-10-10 07:15:00
3:32 AM,53.6,53.6,100,30.09,0.2,Calm,Calm,-,N/A,Fog,Fog,0,2012-10-10 07:32:00
3:55 AM,54.1,53.8,99,30.09,0.2,Calm,Calm,-,N/A,Fog,Fog,0,2012-10-10 07:55:00
4:09 AM,53.6,53.6,100,30.09,0.2,Calm,Calm,-,N/A,Fog,Fog,0,2012-10-10 08:09:00
4:24 AM,53.6,53.6,100,30.09,0.2,Calm,Calm,-,N/A,Fog,Fog,0,2012-10-10 08:24:00
4:32 AM,53.6,53.6,100,30.10,0.5,Calm,Calm,-,N/A,Fog,Fog,0,2012-10-10 08:32:00
4:38 AM,55.4,53.6,94,30.10,0.5,Calm,Calm,-,N/A,Fog,Fog,0,2012-10-10 08:38:00
4:40 AM,55.4,53.6,94,30.10,0.5,Calm,Calm,-,N/A,Fog,Fog,0,2012-10-10 08:40:00
4:51 AM,55.4,55.4,100,30.10,0.5,Calm,Calm,-,N/A,Fog,Fog,0,2012-10-10 08:51:00
4:55 AM,55.2,54.9,99,30.10,0.5,Calm,Calm,-,N/A,Fog,Fog,0,2012-10-10 08:55:00
5:00 AM,55.4,55.4,100,30.11,0.5,Calm,Calm,-,N/A,Fog,Fog,0,2012-10-10 09:00:00
5:07 AM,55.4,55.4,100,30.11,0.2,Calm,Calm,-,N/A,Fog,Fog,0,2012-10-10 09:07:00
5:55 AM,56.7,56.3,99,30.11,0.2,Calm,Calm,-,N/A,Fog,Fog,0,2012-10-10 09:55:00
6:12 AM,57.2,55.4,94,30.11,0.5,Calm,Calm,-,N/A,Fog,Fog,0,2012-10-10 10:12:00
6:55 AM,56.7,56.5,99,30.13,0.5,Calm,Calm,-,N/A,Fog,Fog,0,2012-10-10 10:55:00
7:18 AM,57.2,57.2,100,30.13,0.2,Calm,Calm,-,N/A,Fog,Fog,0,2012-10-10 11:18:00
7:35 AM,57.2,57.2,100,30.13,0.2,Calm,Calm,-,N/A,Fog,Fog,0,2012-10-10 11:35:00
7:55 AM,57.0,56.8,99,30.14,0.2,Calm,Calm,-,N/A,Fog,Fog,0,2012-10-10 11:55:00
8:55 AM,57.4,57.0,99,30.15,0.2,Calm,Calm,-,N/A,Fog,Fog,0,2012-10-10 12:55:00
9:13 AM,59.0,57.2,94,30.15,0.2,Calm,Calm,-,N/A,Fog,Fog,0,2012-10-10 13:13:00
9:22 AM,59.0,57.2,94,30.16,0.2,Calm,Calm,-,N/A,Fog,Fog,0,2012-10-10 13:22:00
9:51 AM,59.0,59.0,100,30.18,1.2,NNW,4.6,-,N/A,,Overcast,330,2012-10-10 13:51:00
9:55 AM,58.8,58.5,99,30.18,1.5,NW,3.5,-,N/A,,Overcast,320,2012-10-10 13:55:00
9:57 AM,59.0,59.0,100,30.18,1.2,Calm,Calm,-,N/A,,Overcast,0,2012-10-10 13:57:00
10:01 AM,59.0,59.0,100,30.18,1.5,NW,3.5,-,N/A,,Overcast,320,2012-10-10 14:01:00
10:04 AM,59.0,59.0,100,30.18,1.8,Calm,Calm,-,N/A,,Overcast,0,2012-10-10 14:04:00
10:06 AM,59.0,59.0,100,30.18,2.0,NW,3.5,-,N/A,,Overcast,320,2012-10-10 14:06:00
10:12 AM,59.0,59.0,100,30.18,3.0,Calm,Calm,-,N/A,,Overcast,0,2012-10-10 14:12:00
10:35 AM,60.8,60.8,100,30.18,9.0,WNW,3.5,-,N/A,,Overcast,290,2012-10-10 14:35:00
10:47 AM,60.8,60.8,100,30.17,10.0,West,3.5,-,N/A,,Overcast,270,2012-10-10 14:47:00
10:55 AM,61.5,61.2,99,30.18,10.0,WNW,3.5,-,N/A,,Overcast,300,2012-10-10 14:55:00
11:06 AM,62.6,60.8,94,30.18,10.0,WNW,4.6,-,N/A,,Overcast,290,2012-10-10 15:06:00
11:22 AM,62.6,62.6,100,30.17,10.0,Calm,Calm,-,N/A,,Scattered Clouds,0,2012-10-10 15:22:00
12:55 PM,74.5,58.3,57,30.14,10.0,Variable,3.5,-,0.00,,Clear,0,2012-10-10 16:55:00
1:55 PM,77.7,57.0,49,30.12,10.0,West,6.9,-,N/A,,Clear,280,2012-10-10 17:55:00
2:55 PM,79.3,58.6,49,30.09,10.0,NNW,11.5,-,N/A,,Clear,330,2012-10-10 18:55:00
3:55 PM,77.9,59.4,53,30.08,10.0,NW,10.4,-,N/A,,Overcast,320,2012-10-10 19:55:00
4:55 PM,76.5,59.4,55,30.09,10.0,NNW,12.7,-,N/A,,Overcast,340,2012-10-10 20:55:00
5:55 PM,75.2,59.4,58,30.09,10.0,NW,8.1,-,N/A,,Overcast,320,2012-10-10 21:55:00
6:55 PM,70.3,61.2,73,30.10,10.0,WNW,3.5,-,N/A,,Clear,290,2012-10-10 22:55:00
7:55 PM,64.8,61.5,89,30.11,10.0,Calm,Calm,-,N/A,,Clear,0,2012-10-10 23:55:00
8:55 PM,61.7,59.5,93,30.12,10.0,Calm,Calm,-,N/A,,Clear,0,2012-10-11 00:55:00
9:55 PM,58.5,58.1,99,30.14,9.0,Calm,Calm,-,N/A,,Clear,0,2012-10-11 01:55:00
10:03 PM,57.2,57.2,100,30.14,2.5,Calm,Calm,-,N/A,,Clear,0,2012-10-11 02:03:00
10:04 PM,57.2,57.2,100,30.14,2.0,Calm,Calm,-,N/A,,Clear,0,2012-10-11 02:04:00
10:06 PM,59.0,57.2,94,30.14,1.8,Calm,Calm,-,N/A,,Clear,0,2012-10-11 02:06:00
10:07 PM,59.0,57.2,94,30.14,1.8,Calm,Calm,-,N/A,,Clear,0,2012-10-11 02:07:00
10:08 PM,59.0,57.2,94,30.14,1.8,Calm,Calm,-,N/A,,Clear,0,2012-10-11 02:08:00
10:09 PM,59.0,59.0,100,30.14,2.0,Calm,Calm,-,N/A,,Clear,0,2012-10-11 02:09:00
10:10 PM,59.0,59.0,100,30.14,2.0,Calm,Calm,-,N/A,,Clear,0,2012-10-11 02:10:00
10:14 PM,59.0,57.2,94,30.15,1.5,Calm,Calm,-,N/A,,Clear,0,2012-10-11 02:14:00
10:16 PM,59.0,57.2,94,30.15,1.0,Calm,Calm,-,N/A,,Clear,0,2012-10-11 02:16:00
10:17 PM,57.2,57.2,100,30.15,0.8,Calm,Calm,-,N/A,,Clear,0,2012-10-11 02:17:00
10:18 PM,57.2,57.2,100,30.15,0.5,Calm,Calm,-,N/A,Fog,Fog,0,2012-10-11 02:18:00
10:21 PM,57.2,57.2,100,30.15,0.5,Calm,Calm,-,N/A,Fog,Fog,0,2012-10-11 02:21:00
10:22 PM,57.2,57.2,100,30.15,0.5,Calm,Calm,-,N/A,Fog,Fog,0,2012-10-11 02:22:00
10:23 PM,59.0,57.2,94,30.15,0.2,Calm,Calm,-,N/A,Fog,Fog,0,2012-10-11 02:23:00
10:29 PM,57.2,57.2,100,30.15,0.5,Calm,Calm,-,N/A,Fog,Fog,0,2012-10-11 02:29:00
10:30 PM,57.2,57.2,100,30.15,0.5,Calm,Calm,-,N/A,Fog,Fog,0,2012-10-11 02:30:00
10:32 PM,59.0,57.2,94,30.15,0.5,Calm,Calm,-,N/A,Fog,Fog,0,2012-10-11 02:32:00
10:34 PM,59.0,57.2,94,30.15,0.8,Calm,Calm,-,N/A,,Clear,0,2012-10-11 02:34:00
10:36 PM,57.2,57.2,100,30.15,1.0,Calm,Calm,-,N/A,,Clear,0,2012-10-11 02:36:00
10:37 PM,57.2,57.2,100,30.15,1.5,Calm,Calm,-,N/A,,Clear,0,2012-10-11 02:37:00
10:38 PM,57.2,57.2,100,30.15,2.0,Calm,Calm,-,N/A,,Clear,0,2012-10-11 02:38:00
10:39 PM,57.2,57.2,100,30.15,3.0,Calm,Calm,-,N/A,,Clear,0,2012-10-11 02:39:00
10:46 PM,57.2,57.2,100,30.15,4.0,Calm,Calm,-,N/A,,Clear,0,2012-10-11 02:46:00
10:55 PM,57.9,57.7,99,30.16,7.0,Calm,Calm,-,N/A,,Clear,0,2012-10-11 02:55:00
11:10 PM,57.2,57.2,100,30.16,2.5,Calm,Calm,-,N/A,,Clear,0,2012-10-11 03:10:00
11:12 PM,57.2,57.2,100,30.16,1.5,Calm,Calm,-,N/A,,Clear,0,2012-10-11 03:12:00
11:13 PM,57.2,57.2,100,30.16,1.2,Calm,Calm,-,N/A,,Clear,0,2012-10-11 03:13:00
11:14 PM,57.2,57.2,100,30.16,0.8,Calm,Calm,-,N/A,,Clear,0,2012-10-11 03:14:00
11:16 PM,57.2,57.2,100,30.16,0.5,Calm,Calm,-,N/A,Fog,Fog,0,2012-10-11 03:16:00
11:18 PM,57.2,57.2,100,30.16,0.5,Calm,Calm,-,N/A,Fog,Fog,0,2012-10-11 03:18:00
11:19 PM,57.2,57.2,100,30.16,0.2,Calm,Calm,-,N/A,Fog,Fog,0,2012-10-11 03:19:00
11:26 PM,57.2,57.2,100,30.16,0.5,Calm,Calm,-,N/A,Fog,Fog,0,2012-10-11 03:26:00
11:27 PM,57.2,57.2,100,30.16,0.5,Calm,Calm,-,N/A,Fog,Fog,0,2012-10-11 03:27:00
11:36 PM,55.4,55.4,100,30.16,0.2,Calm,Calm,-,N/A,Fog,Fog,0,2012-10-11 03:36:00
11:37 PM,55.4,55.4,100,30.16,0.2,Calm,Calm,-,N/A,Fog,Fog,0,2012-10-11 03:37:00
11:38 PM,55.4,55.4,100,30.16,0.2,Calm,Calm,-,N/A,Fog,Fog,0,2012-10-11 03:38:00
11:45 PM,55.4,55.4,100,30.16,0.5,Calm,Calm,-,N/A,Fog,Fog,0,2012-10-11 03:45:00
11:51 PM,55.4,55.4,100,30.16,0.5,Calm,Calm,-,N/A,Fog,Fog,0,2012-10-11 03:51:00
11:52 PM,55.4,55.4,100,30.16,0.8,Calm,Calm,-,N/A,,Clear,0,2012-10-11 03:52:00
11:53 PM,55.4,55.4,100,30.16,0.8,Calm,Calm,-,N/A,,Clear,0,2012-10-11 03:53:00
11:55 PM,56.1,55.9,99,30.16,0.8,Calm,Calm,-,N/A,,Clear,0,2012-10-11 03:55:00
11:57 PM,55.4,55.4,100,30.16,1.0,Calm,Calm,-,N/A,,Clear,0,2012-10-11 03:57:00